Date,TemperatureHighF,TemperatureAvgF,TemperatureLowF,DewpointHighF,DewpointAvgF,DewpointLowF,HumidityHigh,HumidityAvg,HumidityLow,PressureMaxIn,PressureMinIn,WindSpeedMaxMPH,WindSpeedAvgMPH,GustSpeedMaxMPH,PrecipitationSumIn
2013-1-1,26,9,-1,15,4,-6,84,77,62,30.75,30.44,5,1,6,0.01
2013-1-2,21,3,-7,10,-3,-12,82,76,61,30.85,30.61,4,1,5,0.00
2013-1-3,22,0,-12,9,-7,-17,81,73,56,31.03,30.77,4,1,4,0.00
2013-1-4,20,1,-10,7,-6,-15,89,73,53,30.93,30.66,4,1,5,0.00
2013-1-5,22,0,-14,8,-7,-20,83,72,54,31.03,30.76,5,1,7,0.00
2013-1-6,16,2,-10,7,-4,-16,89,75,65,30.92,30.57,4,1,4,0.00
2013-1-7,23,5,-7,11,-2,-12,80,75,60,30.64,30.44,6,1,7,0.00
2013-1-8,28,9,-3,14,2,-8,81,73,55,30.79,30.45,4,1,5,0.01
2013-1-9,34,11,-1,18,4,-6,81,73,50,30.88,30.43,4,1,6,0.00
2013-1-10,45,17,1,28,10,-4,85,74,46,30.44,29.54,22,3,34,0.00
2013-1-11,42,24,2,30,13,-4,88,63,39,30.19,29.51,22,10,28,0.00
2013-1-12,20,2,-9,6,-6,-15,79,71,51,30.48,30.18,4,1,5,0.00
2013-1-13,19,4,-7,9,-2,-12,79,74,62,30.53,30.35,5,1,6,0.00
2013-1-14,15,-5,-17,0,-12,-24,77,70,49,30.83,30.50,4,1,5,0.00
2013-1-15,19,-2,-18,4,-10,-24,77,68,50,31.03,30.77,5,1,6,0.00
2013-1-16,23,4,-8,7,-4,-13,79,69,48,31.07,30.82,7,1,9,0.00
2013-1-17,26,6,-6,12,-2,-11,80,72,53,31.08,30.82,4,1,6,0.00
2013-1-18,28,6,-7,15,-1,-12,79,73,56,30.98,30.71,4,1,5,0.00
2013-1-19,30,8,-6,17,1,-11,80,73,55,30.98,30.72,4,1,5,0.00
2013-1-20,28,7,-5,15,1,-11,83,75,57,30.92,30.64,3,1,4,0.00
2013-1-21,31,9,-5,17,2,-11,80,73,53,30.90,30.64,5,1,5,0.00
2013-1-22,32,9,-5,16,2,-10,89,72,51,30.90,30.64,4,1,5,0.00
2013-1-23,29,10,-5,16,3,-10,80,74,56,30.91,30.69,3,1,5,0.00
2013-1-24,32,23,8,24,16,3,81,73,62,30.71,30.49,4,1,5,0.00
2013-1-25,36,32,29,30,27,24,89,82,74,30.49,30.31,2,0,3,0.02
2013-1-26,37,34,32,34,31,29,91,90,89,30.31,29.89,3,0,3,0.30
2013-1-27,44,35,29,37,32,26,92,89,74,29.99,29.76,8,1,15,0.04
2013-1-28,41,33,27,34,27,15,91,79,59,29.93,29.74,16,5,19,0.02
2013-1-29,34,25,16,20,16,11,83,70,52,30.26,29.92,8,3,11,0.00
2013-1-30,36,24,14,22,16,10,85,74,49,30.41,30.25,5,1,5,0.00
2013-1-31,41,26,15,28,20,11,86,76,56,30.55,30.34,4,1,6,0.00
2013-2-1,44,28,16,29,21,12,87,77,53,30.52,30.34,4,1,5,0.01
2013-2-2,47,30,16,30,22,12,87,74,45,30.70,30.44,7,1,9,0.00
2013-2-3,39,29,23,29,24,20,89,81,62,30.44,30.22,3,0,4,0.00
2013-2-4,44,29,18,30,23,15,88,78,57,30.38,30.19,6,1,8,0.01
2013-2-5,49,32,20,30,24,17,88,73,46,30.36,30.05,5,1,6,0.01
2013-2-6,48,33,24,33,26,20,88,77,50,30.20,29.99,6,1,9,0.00
2013-2-7,51,33,20,32,24,17,88,72,44,30.37,30.07,7,1,9,0.00
2013-2-8,56,40,26,32,25,19,85,58,34,30.08,29.58,22,6,30,0.00
2013-2-9,43,35,30,33,28,23,89,75,53,29.80,29.60,13,3,17,0.06
2013-2-10,39,31,26,28,25,22,89,77,56,29.99,29.80,10,1,11,0.04
2013-2-11,38,29,18,26,22,13,88,77,51,30.30,29.94,8,3,11,0.04
2013-2-12,39,25,13,18,14,8,84,66,38,30.49,30.28,5,1,7,0.00
2013-2-13,42,28,17,24,19,12,92,69,44,30.50,30.28,7,1,7,0.00
2013-2-14,50,33,24,30,23,20,86,70,37,30.41,30.23,4,1,6,0.00
2013-2-15,51,32,19,26,21,15,87,67,32,30.57,30.36,4,1,6,0.00
2013-2-16,51,33,19,24,20,15,92,63,33,30.62,30.21,6,1,10,0.00
2013-2-17,54,35,20,27,21,14,87,60,31,30.21,29.72,11,3,17,0.01
2013-2-18,44,32,23,18,15,10,78,52,29,30.23,29.92,9,2,12,0.00
2013-2-19,55,34,18,19,15,10,82,49,19,30.17,29.66,11,4,15,0.00
2013-2-20,50,38,24,28,21,15,76,51,31,29.69,29.48,14,4,18,0.00
2013-2-21,48,38,32,29,26,22,79,63,38,29.89,29.58,11,2,14,0.00
2013-2-22,39,31,22,28,23,17,92,73,45,30.20,29.88,13,4,14,0.05
2013-2-23,45,28,17,27,20,12,92,75,35,30.20,29.78,13,3,16,0.00
2013-2-24,36,28,20,26,20,14,85,72,56,30.23,29.86,10,2,12,0.10
2013-2-25,44,29,15,22,17,10,83,61,34,30.38,29.99,8,2,10,0.01
2013-2-26,42,32,22,25,20,15,87,64,35,30.34,29.93,13,4,14,0.01
2013-2-27,45,29,16,19,15,11,83,60,31,30.54,30.32,8,2,11,0.00
2013-2-28,47,30,15,20,15,10,82,59,31,30.61,30.43,9,2,12,0.00
2013-3-1,56,37,22,27,23,16,82,60,33,30.61,30.38,6,1,10,0.00
2013-3-2,61,40,22,31,25,18,85,60,31,30.61,30.12,6,1,10,0.00
2013-3-3,57,42,27,38,29,22,83,63,37,30.12,29.74,6,1,10,0.02
2013-3-4,54,41,23,41,27,13,90,61,25,30.28,29.70,15,4,20,0.01
2013-3-5,55,36,19,19,16,12,75,48,24,30.47,30.14,8,3,12,0.00
2013-3-6,64,40,19,29,22,13,86,52,26,30.18,29.80,12,2,17,0.00
2013-3-7,69,46,26,30,23,20,77,46,18,30.00,29.73,13,2,17,0.00
2013-3-8,55,41,32,39,30,20,88,67,36,29.83,29.58,13,2,13,0.11
2013-3-9,43,37,29,36,30,20,92,79,57,30.20,29.59,13,4,18,0.04
2013-3-10,54,37,22,26,22,16,81,58,34,30.38,30.17,5,2,10,0.00
2013-3-11,58,39,23,31,26,19,85,63,34,30.32,30.06,7,1,11,0.00
2013-3-12,61,44,31,36,30,26,85,61,34,30.30,30.11,7,1,11,0.00
2013-3-13,69,47,27,34,29,22,86,56,24,30.43,30.21,6,1,7,0.00
2013-3-14,73,50,28,36,30,22,83,52,25,30.42,30.10,7,2,11,0.00
2013-3-15,72,50,31,36,31,25,80,52,25,30.15,29.82,4,1,5,0.00
2013-3-16,67,54,41,40,35,31,69,49,32,29.83,29.62,10,3,12,0.00
2013-3-17,62,49,37,36,26,14,80,47,20,29.82,29.57,26,7,35,0.00
2013-3-18,58,43,28,21,18,13,65,38,21,30.03,29.82,20,6,26,0.00
2013-3-19,62,45,31,22,17,12,62,35,15,30.17,29.91,5,1,10,0.00
2013-3-20,56,42,24,25,18,12,61,39,24,30.21,29.75,7,2,10,0.00
2013-3-21,58,44,32,41,28,14,84,55,21,29.95,29.63,16,4,22,0.13
2013-3-22,55,38,23,25,18,8,81,47,18,29.94,29.61,22,5,27,0.00
2013-3-23,44,32,22,16,9,6,56,39,25,30.25,29.86,14,5,17,0.00
2013-3-24,44,30,13,13,9,5,72,44,23,30.36,30.17,11,3,15,0.00
2013-3-25,51,35,22,12,9,7,54,36,20,30.39,30.15,9,3,14,0.00
2013-3-26,66,43,21,26,17,8,67,39,21,30.21,29.81,11,2,13,0.00
2013-3-27,70,50,27,29,23,17,68,38,18,30.04,29.81,16,3,22,0.00
2013-3-28,73,53,32,30,25,20,62,37,19,30.01,29.83,14,3,17,0.00
2013-3-29,74,54,36,36,29,23,61,41,22,30.11,29.87,13,2,18,0.00
2013-3-30,74,53,32,35,31,25,76,46,23,30.15,29.90,15,3,21,0.00
2013-3-31,74,53,30,35,27,20,73,41,14,30.10,29.77,12,3,16,0.00
2013-4-1,71,53,38,44,31,19,65,44,19,29.89,29.61,17,4,19,0.02
2013-4-2,60,47,35,40,34,28,78,62,37,29.99,29.76,16,4,22,0.01
2013-4-3,70,50,30,37,31,25,84,54,24,30.16,29.94,12,2,13,0.00
2013-4-4,76,54,30,34,28,22,74,41,20,30.18,29.82,14,2,18,0.00
2013-4-5,75,57,43,40,32,28,60,41,22,29.84,29.59,20,5,22,0.00
2013-4-6,69,54,38,38,31,26,68,45,22,29.91,29.69,20,3,23,0.00
2013-4-7,70,54,38,38,31,22,78,47,20,29.82,29.47,21,5,28,0.00
2013-4-8,69,51,42,42,31,22,81,49,25,29.48,29.16,27,8,37,0.07
2013-4-9,44,36,27,33,23,11,83,60,39,30.14,29.31,10,5,15,0.00
2013-4-10,54,37,23,23,14,9,56,41,24,30.29,29.98,7,3,11,0.00
2013-4-11,60,44,32,37,28,21,69,55,40,30.02,29.75,5,1,9,0.00
2013-4-12,70,50,32,36,28,22,80,48,19,29.90,29.73,9,2,13,0.00
2013-4-13,73,51,27,40,28,19,74,45,22,29.80,29.22,27,5,35,0.01
2013-4-14,60,50,38,39,22,16,70,35,19,29.71,29.42,15,6,18,0.02
2013-4-15,49,43,39,38,32,18,86,68,31,29.68,29.36,12,4,14,0.39
2013-4-16,55,43,33,40,35,29,92,74,50,29.86,29.51,21,6,24,0.05
2013-4-17,41,34,28,29,23,14,89,67,39,30.23,29.80,11,2,15,0.27
2013-4-18,48,35,25,20,17,12,78,51,29,30.35,30.21,7,3,11,0.00
2013-4-19,57,42,24,30,23,18,82,50,27,30.40,29.93,11,3,17,0.00
2013-4-20,61,50,43,38,34,31,69,55,38,30.00,29.84,10,4,15,0.00
2013-4-21,67,51,31,39,31,25,86,53,21,30.16,29.80,14,3,19,0.00
2013-4-22,68,55,38,36,30,25,72,42,23,29.85,29.64,18,5,23,0.00
2013-4-23,57,47,36,27,18,11,51,33,18,30.07,29.79,12,5,20,0.00
2013-4-24,66,50,35,24,20,17,55,33,18,30.14,29.97,7,3,11,0.00
2013-4-25,72,53,31,27,23,20,69,35,17,30.04,29.70,15,4,19,0.00
2013-4-26,76,56,33,29,25,21,62,34,16,30.06,29.82,9,2,13,0.00
2013-4-27,79,58,33,30,26,21,66,34,15,30.19,29.84,9,3,13,0.00
2013-4-28,82,60,35,36,30,24,66,36,17,29.99,29.62,13,3,16,0.00
2013-4-29,83,63,39,38,33,29,71,37,17,29.76,29.41,19,4,23,0.00
2013-4-30,83,62,43,42,36,32,71,42,19,29.76,29.33,21,6,31,0.04
2013-5-1,61,49,37,39,26,15,86,48,17,30.40,29.75,12,4,18,0.11
2013-5-2,65,48,30,24,19,16,65,35,17,30.60,30.28,10,3,12,0.00
2013-5-3,74,52,27,29,23,19,73,37,17,30.34,29.76,9,3,12,0.00
2013-5-4,80,58,33,32,28,23,68,36,15,29.85,29.56,10,3,15,0.00
2013-5-5,80,66,48,35,30,24,47,28,16,29.73,29.55,13,4,20,0.00
2013-5-6,74,59,50,46,39,28,85,50,27,29.82,29.65,19,5,26,0.02
2013-5-7,64,53,44,47,44,39,87,72,47,29.94,29.79,11,3,12,0.09
2013-5-8,60,50,44,46,42,40,92,75,54,30.00,29.81,9,2,12,0.40
2013-5-9,72,58,48,46,42,37,85,59,36,29.97,29.83,13,4,13,0.01
2013-5-10,77,60,40,44,40,35,87,53,24,30.06,29.88,13,2,13,0.00
2013-5-11,82,64,43,42,38,33,78,43,20,30.16,29.92,7,2,10,0.00
2013-5-12,86,66,45,44,41,38,79,44,21,30.11,29.83,9,2,13,0.00
2013-5-13,90,69,46,46,42,39,79,43,19,30.01,29.71,9,2,11,0.00
2013-5-14,90,72,47,47,43,40,77,41,20,29.81,29.52,10,3,14,0.00
2013-5-15,89,74,62,50,45,42,52,37,22,29.66,29.43,11,5,16,0.00
2013-5-16,90,72,56,48,42,32,62,36,18,29.68,29.41,14,4,17,0.00
2013-5-17,83,69,47,42,34,28,64,31,17,29.62,29.45,14,6,18,0.00
2013-5-18,74,64,54,42,38,34,55,38,28,29.73,29.57,21,6,26,0.00
2013-5-19,71,57,39,40,36,33,79,50,26,29.85,29.70,18,4,19,0.00
2013-5-20,72,56,40,48,39,33,77,55,34,29.92,29.74,11,2,16,0.03
2013-5-21,79,62,41,42,39,32,82,46,22,29.96,29.59,10,2,16,0.00
2013-5-22,88,70,46,43,37,33,69,35,16,29.64,29.31,16,4,20,0.00
2013-5-23,90,77,64,38,31,25,30,20,13,29.53,29.32,20,9,30,0.00
2013-5-24,85,71,55,36,30,24,42,24,14,29.70,29.44,16,4,22,0.00
2013-5-25,90,68,42,41,32,24,66,31,14,29.78,29.53,14,3,18,0.00
2013-5-26,89,67,42,40,32,27,65,31,14,29.76,29.53,13,3,15,0.00
2013-5-27,84,67,42,37,31,24,60,29,16,29.70,29.44,16,4,21,0.00
2013-5-28,81,63,46,46,37,32,74,42,19,29.57,29.34,23,5,32,0.00
2013-5-29,73,60,45,47,38,30,86,51,24,29.63,29.47,17,6,23,0.00
2013-5-30,77,62,41,38,33,30,69,36,19,29.72,29.56,23,7,28,0.00
2013-5-31,79,65,53,35,29,22,47,28,14,29.91,29.67,18,5,24,0.00
2013-6-1,82,64,42,41,32,24,58,32,18,30.06,29.75,8,2,13,0.00
2013-6-2,93,70,42,40,36,30,67,32,15,29.86,29.43,16,4,17,0.00
2013-6-3,92,71,46,48,38,32,64,34,15,29.58,29.45,20,4,30,0.00
2013-6-4,92,73,47,44,39,33,63,33,16,29.70,29.49,26,5,46,0.00
2013-6-5,90,73,53,43,38,32,52,29,17,29.75,29.57,10,2,14,0.00
2013-6-6,93,72,46,45,40,36,70,35,16,29.78,29.53,7,2,10,0.00
2013-6-7,94,73,52,48,43,37,65,37,18,29.73,29.43,9,2,12,0.00
2013-6-8,97,77,54,49,44,38,65,34,16,29.60,29.42,11,2,12,0.00
2013-6-9,101,80,55,53,44,38,59,31,15,29.75,29.44,6,2,10,0.00
2013-6-10,102,79,52,50,43,33,67,33,13,29.62,29.39,20,3,24,0.00
2013-6-11,92,76,52,46,38,34,59,28,15,29.68,29.42,23,7,29,0.00
2013-6-12,96,77,50,46,38,33,61,27,13,29.76,29.57,16,5,20,0.00
2013-6-13,95,78,58,51,41,30,54,30,15,29.69,29.41,25,6,32,0.00
2013-6-14,92,73,49,44,33,22,46,25,12,29.70,29.49,18,4,27,0.00
2013-6-15,94,74,48,43,37,30,60,29,15,29.76,29.56,23,4,26,0.00
2013-6-16,94,78,59,50,45,40,55,33,17,29.76,29.54,13,3,18,0.00
2013-6-17,97,80,65,49,43,36,43,28,15,29.74,29.50,14,4,19,0.00
2013-6-18,97,80,63,46,39,28,38,25,12,29.63,29.37,15,5,20,0.00
2013-6-19,94,75,48,43,33,28,57,27,11,29.53,29.30,21,6,33,0.00
2013-6-20,93,75,49,39,33,26,53,24,12,29.62,29.41,16,5,23,0.00
2013-6-21,95,72,46,40,34,29,62,30,12,29.69,29.44,20,4,25,0.00
2013-6-22,90,73,46,45,36,31,64,30,14,29.63,29.45,17,5,23,0.00
2013-6-23,95,75,51,50,38,30,58,30,15,29.67,29.34,7,2,10,0.00
2013-6-24,89,74,50,45,38,34,66,32,15,29.57,29.43,18,5,28,0.00
2013-6-25,91,76,56,49,43,37,54,33,20,29.69,29.47,16,3,21,0.00
2013-6-26,101,77,52,51,46,40,69,38,17,29.79,29.57,11,2,14,0.00
2013-6-27,106,82,54,58,47,41,66,34,15,29.86,29.59,9,2,12,0.00
2013-6-28,108,83,58,54,48,44,65,33,13,29.83,29.61,9,3,14,0.00
2013-6-29,106,83,62,58,51,46,66,35,16,29.77,29.50,19,2,23,0.00
2013-6-30,103,82,59,55,51,47,68,38,19,29.79,29.50,10,2,14,0.00
2013-7-1,102,84,60,55,50,45,67,33,17,29.78,29.53,7,2,11,0.00
2013-7-2,102,83,61,55,49,45,65,34,17,29.76,29.50,6,2,10,0.00
2013-7-3,103,81,57,52,48,43,66,35,16,29.70,29.48,14,4,17,0.00
2013-7-4,98,83,72,57,51,47,50,34,21,29.62,29.39,6,2,7,0.00
2013-7-5,98,83,65,59,52,47,63,36,21,29.54,29.32,20,5,23,0.00
2013-7-6,98,81,66,57,52,48,60,39,23,29.60,29.42,22,2,25,0.00
2013-7-7,100,80,60,59,54,49,71,43,22,29.74,29.50,25,3,31,0.01
2013-7-8,97,77,58,59,54,47,86,52,19,29.83,29.61,14,3,21,0.00
2013-7-9,102,83,57,57,51,47,73,38,17,29.83,29.56,10,2,15,0.00
2013-7-10,104,82,59,56,49,43,69,36,14,29.76,29.45,12,2,15,0.00
2013-7-11,101,76,58,62,52,40,81,46,22,29.73,29.45,12,2,17,0.12
2013-7-12,93,77,62,63,60,55,88,60,32,29.76,29.53,14,3,18,0.00
2013-7-13,97,81,67,65,59,55,76,50,29,29.76,29.54,14,3,17,0.01
2013-7-14,98,81,66,62,57,53,78,46,23,29.78,29.52,13,2,14,0.04
2013-7-15,101,80,62,61,56,52,77,48,22,29.68,29.39,18,3,24,0.09
2013-7-16,95,79,64,64,60,56,83,55,31,29.75,29.56,7,2,12,0.00
2013-7-17,95,80,65,66,61,56,90,57,35,29.84,29.65,13,3,15,0.34
2013-7-18,97,79,67,62,59,56,77,52,28,29.86,29.58,15,5,16,0.00
2013-7-19,101,81,64,61,58,52,82,49,23,29.83,29.49,11,4,15,0.00
2013-7-20,100,82,66,65,56,50,69,44,19,29.67,29.39,5,2,7,0.00
2013-7-21,104,82,57,64,52,47,76,41,16,29.64,29.40,4,1,6,0.00
2013-7-22,104,84,66,59,52,47,64,36,16,29.67,29.44,4,1,9,0.00
2013-7-23,102,81,58,68,50,44,73,39,15,29.73,29.51,5,1,8,0.00
2013-7-24,94,79,64,59,53,49,66,42,25,29.73,29.57,12,2,15,0.00
2013-7-25,96,79,59,59,54,50,75,45,24,29.79,29.60,14,2,16,0.00
2013-7-26,102,84,69,57,52,49,57,35,19,29.84,29.56,6,3,10,0.00
2013-7-27,94,76,62,62,55,47,78,51,29,29.79,29.56,13,2,20,0.10
2013-7-28,88,73,64,64,59,54,87,65,37,29.74,29.52,12,3,16,0.30
2013-7-29,85,70,60,63,57,49,90,67,29,29.88,29.70,11,2,12,0.26
2013-7-30,94,75,56,59,53,44,88,53,19,30.01,29.77,9,2,11,0.00
2013-7-31,100,80,64,56,52,48,68,40,20,29.95,29.65,9,3,11,0.00
2013-8-1,78,67,59,62,57,51,82,69,39,29.98,29.67,17,3,18,0.10
2013-8-2,92,75,57,63,58,53,89,60,33,29.88,29.61,6,1,9,0.00
2013-8-3,94,78,63,62,57,51,77,50,30,29.83,29.66,14,3,17,0.00
2013-8-4,94,78,66,57,54,51,62,44,27,29.83,29.67,14,5,17,0.00
2013-8-5,92,78,67,61,55,49,67,47,31,29.83,29.61,6,2,8,0.00
2013-8-6,96,77,66,60,53,50,60,45,26,29.75,29.57,13,4,18,0.15
2013-8-7,88,72,61,57,53,46,82,53,27,29.79,29.64,16,4,22,0.00
2013-8-8,88,72,62,56,52,46,70,51,25,29.81,29.64,15,3,22,0.01
2013-8-9,90,72,61,54,51,48,75,49,25,29.87,29.68,13,4,26,0.14
2013-8-10,82,68,60,53,49,45,75,53,29,29.97,29.80,17,5,21,0.00
2013-8-11,92,70,50,53,50,46,87,53,25,30.09,29.72,8,2,11,0.00
2013-8-12,92,72,54,52,49,46,78,47,24,29.92,29.72,21,2,23,0.00
2013-8-13,92,73,53,55,49,45,81,48,22,29.97,29.71,8,2,13,0.00
2013-8-14,95,76,59,53,46,40,62,36,16,29.89,29.66,7,2,11,0.00
2013-8-15,97,76,57,54,45,40,66,36,15,29.89,29.66,7,2,11,0.00
2013-8-16,100,75,51,57,46,41,72,41,16,29.91,29.65,8,1,10,0.00
2013-8-17,93,74,53,55,48,43,74,44,22,29.87,29.68,20,3,27,0.00
2013-8-18,98,77,54,56,51,47,78,44,22,29.89,29.62,6,1,7,0.00
2013-8-19,102,82,67,57,52,48,53,36,19,29.80,29.52,7,2,11,0.00
2013-8-20,94,78,59,59,53,50,73,44,25,29.77,29.60,11,2,14,0.00
2013-8-21,98,80,64,58,53,51,63,41,23,29.82,29.59,8,2,12,0.00
2013-8-22,92,78,66,59,55,53,70,48,30,29.83,29.66,9,1,12,0.00
2013-8-23,87,71,59,61,55,52,81,59,35,29.78,29.62,18,2,34,0.25
2013-8-24,88,73,59,58,55,50,83,57,32,29.86,29.68,15,1,15,0.00
2013-8-25,72,66,62,62,59,56,88,80,62,29.98,29.81,3,0,5,0.27
2013-8-26,82,69,62,65,61,59,91,77,50,30.03,29.83,4,0,4,0.02
2013-8-27,86,73,62,66,61,57,91,69,41,29.93,29.72,9,2,15,0.17
2013-8-28,93,75,58,62,57,53,89,59,30,29.87,29.69,8,1,11,0.00
2013-8-29,97,78,58,59,56,52,85,52,25,29.89,29.71,6,1,7,0.00
2013-8-30,99,80,62,60,56,52,80,48,21,29.87,29.62,11,2,13,0.00
2013-8-31,96,81,68,62,57,53,69,46,26,29.77,29.55,7,1,14,0.00
2013-9-1,94,80,70,62,56,53,64,45,31,29.75,29.54,7,2,9,0.00
2013-9-2,93,77,63,67,59,56,79,57,34,29.82,29.60,12,1,12,0.10
2013-9-3,96,76,58,60,56,53,84,55,29,29.85,29.67,8,1,11,0.00
2013-9-4,98,81,64,59,56,53,77,47,23,29.87,29.63,5,1,10,0.00
2013-9-5,97,82,64,60,56,53,72,44,27,29.85,29.63,9,1,11,0.00
2013-9-6,98,83,70,60,55,50,57,40,21,29.85,29.56,9,2,13,0.00
2013-9-7,98,82,68,57,53,48,59,38,21,29.78,29.49,13,2,20,0.01
2013-9-8,84,72,62,58,55,53,77,58,38,29.73,29.63,10,1,13,0.00
2013-9-9,65,62,57,60,58,54,90,87,74,29.82,29.67,13,0,25,1.04
2013-9-10,65,62,60,61,59,58,92,89,82,29.87,29.77,3,0,4,0.45
2013-9-11,79,68,61,63,60,58,92,79,52,29.89,29.76,4,1,6,0.16
2013-9-12,80,70,61,61,57,54,83,66,45,29.88,29.67,10,2,18,0.05
2013-9-13,79,69,60,62,56,52,83,66,43,29.79,29.57,6,1,10,0.09
2013-9-14,74,64,59,58,56,53,88,76,49,29.76,29.63,5,1,7,0.12
2013-9-15,79,66,56,58,55,51,89,70,46,29.88,29.74,4,0,5,0.00
2013-9-16,85,69,55,58,54,50,87,62,35,29.94,29.71,4,1,11,0.00
2013-9-17,78,65,54,61,54,50,86,69,44,29.82,29.48,8,1,0,0.08
2013-9-18,86,69,56,62,54,47,91,63,28,29.64,29.47,13,2,0,0.03
2013-9-19,79,63,49,52,44,36,84,55,22,29.87,29.63,6,0,12,0.00
2013-9-20,83,63,44,51,40,36,81,48,21,29.99,29.72,5,1,6,0.00
2013-9-21,86,67,48,50,46,42,83,52,25,29.85,29.44,11,2,0,0.00
2013-9-22,74,66,51,53,49,45,85,56,41,29.59,29.33,18,3,18,0.48
2013-9-23,71,57,44,50,45,40,90,67,35,29.98,29.58,5,1,6,0.01
2013-9-24,77,59,43,48,43,39,86,59,30,30.06,29.65,6,1,11,0.00
2013-9-25,82,64,42,49,40,36,86,48,21,29.65,29.22,22,5,35,0.00
2013-9-26,79,68,48,43,37,33,68,35,20,29.47,29.25,22,9,29,0.00
2013-9-27,60,53,42,47,38,31,80,60,34,30.07,29.40,17,4,20,0.05
2013-9-28,65,48,32,39,34,29,89,63,31,30.30,30.07,4,0,8,0.01
2013-9-29,73,52,33,43,36,28,86,60,28,30.25,29.90,2,0,6,0.00
2013-9-30,81,57,37,44,39,33,85,57,24,29.99,29.70,3,0,4,0.00
2013-10-1,82,58,38,45,39,33,84,56,23,29.97,29.69,3,0,6,0.00
2013-10-2,79,58,37,44,38,33,85,54,24,29.92,29.56,4,0,5,0.00
2013-10-3,77,55,37,44,38,33,85,58,28,29.92,29.41,17,5,23,0.19
2013-10-4,52,41,35,38,31,25,92,69,38,30.38,29.85,9,1,13,0.04
2013-10-5,58,44,34,34,30,28,85,62,36,30.45,30.28,5,1,10,0.00
2013-10-6,68,46,33,40,33,28,83,63,32,30.45,30.16,6,1,13,0.00
2013-10-7,70,52,32,43,36,29,88,59,31,30.30,29.93,4,1,0,0.00
2013-10-8,77,54,36,44,37,29,87,58,22,29.90,29.58,12,1,3,0.00
2013-10-9,77,55,41,45,36,32,77,53,22,29.74,29.49,11,1,16,0.00
2013-10-10,65,51,44,45,42,35,87,73,34,29.79,29.46,17,2,20,0.36
2013-10-11,62,50,41,46,40,35,90,73,40,30.00,29.78,10,1,15,0.02
2013-10-12,65,48,37,42,38,33,92,70,39,30.09,29.89,5,0,7,0.01
2013-10-13,72,54,38,45,39,33,83,59,29,29.96,29.66,15,2,16,0.00
2013-10-14,59,49,43,45,40,38,89,72,46,30.07,29.74,17,2,18,0.09
2013-10-15,57,45,37,38,34,28,87,68,41,30.14,30.00,8,0,8,0.00
2013-10-16,58,42,29,31,28,24,81,60,32,30.27,30.09,4,0,7,0.00
2013-10-17,62,44,29,34,30,24,86,63,30,30.23,29.91,4,0,8,0.00
2013-10-18,60,44,29,34,28,25,85,58,28,30.24,29.95,9,1,12,0.00
2013-10-19,62,42,26,32,27,21,84,60,29,30.33,30.04,5,0,9,0.00
2013-10-20,64,45,29,35,31,25,85,62,33,30.11,29.88,1,0,0,0.00
2013-10-21,68,46,30,37,31,25,86,60,26,30.22,29.95,4,0,11,0.00
2013-10-22,69,47,28,36,30,24,86,58,28,30.36,30.07,6,1,11,0.00
2013-10-23,71,48,29,37,31,24,86,59,26,30.27,30.00,5,0,8,0.00
2013-10-24,71,48,30,38,32,26,85,59,28,30.23,29.97,5,0,11,0.00
2013-10-25,69,49,33,41,35,28,84,62,33,30.22,30.02,5,0,7,0.00
2013-10-26,73,49,31,41,34,27,86,62,28,30.33,30.08,5,1,7,0.00
2013-10-27,68,48,29,39,33,25,86,60,34,30.18,29.63,3,0,5,0.00
2013-10-28,72,60,42,36,31,27,72,37,20,29.63,29.42,23,8,29,0.00
2013-10-29,61,48,40,41,36,28,88,66,29,29.88,29.50,24,5,31,0.24
2013-10-30,49,41,37,40,36,33,92,82,57,30.01,29.84,8,0,10,0.18
2013-10-31,54,41,34,40,35,31,91,79,51,30.15,29.99,3,0,6,0.00
2013-11-1,62,43,30,38,33,27,89,71,35,30.32,30.09,3,0,6,0.01
2013-11-2,61,43,33,35,31,28,86,65,36,30.32,29.90,4,1,7,0.00
2013-11-3,64,43,29,40,28,15,88,61,28,29.95,29.57,16,2,22,0.00
2013-11-4,46,37,28,30,22,14,80,57,37,30.05,29.92,8,1,9,0.00
2013-11-5,47,36,24,30,21,15,82,58,30,30.41,30.01,9,1,11,0.00
2013-11-6,50,33,19,22,19,14,88,60,33,30.60,30.40,3,0,4,0.00
2013-11-7,57,37,21,31,24,16,85,63,33,30.67,30.15,6,1,9,0.00
2013-11-8,63,40,24,32,27,20,85,63,29,30.25,29.97,4,0,6,0.00
2013-11-9,63,42,24,33,27,19,85,60,30,30.33,30.10,4,0,6,0.00
2013-11-10,65,42,25,33,27,20,84,60,28,30.40,30.16,5,0,5,0.00
2013-11-11,65,41,23,33,26,18,85,61,28,30.51,30.26,5,1,9,0.00
2013-11-12,68,42,24,33,26,20,85,60,26,30.64,30.34,5,1,7,0.00
2013-11-13,55,39,24,31,27,19,83,64,37,30.50,30.09,2,0,4,0.00
2013-11-14,61,42,27,34,28,21,85,62,29,30.24,29.78,3,0,5,0.00
2013-11-15,59,39,21,36,26,16,83,64,37,29.87,29.55,8,1,13,0.00
2013-11-16,47,36,25,37,30,21,88,82,62,29.72,29.54,2,0,6,0.10
2013-11-17,59,38,27,38,30,23,89,74,41,30.22,29.72,2,0,3,0.01
2013-11-18,59,38,22,34,27,19,92,68,36,30.41,30.11,4,0,6,0.00
2013-11-19,47,36,25,34,28,20,86,73,51,30.13,29.90,2,0,4,0.01
2013-11-20,50,40,27,38,34,23,89,77,58,30.01,29.78,1,0,3,0.15
2013-11-21,47,42,36,43,37,26,95,84,64,30.25,29.83,7,0,12,0.41
2013-11-22,40,35,33,30,26,22,89,70,56,30.37,30.24,8,1,11,0.05
2013-11-23,38,34,33,35,32,30,91,90,87,30.36,30.20,1,0,1,0.70
2013-11-24,43,37,34,39,34,32,92,87,75,30.23,30.08,5,1,10,0.07
2013-11-25,50,35,28,37,29,24,91,80,44,30.46,30.14,2,0,5,0.01
2013-11-26,50,34,24,31,26,20,89,75,45,30.59,30.38,4,0,9,0.00
2013-11-27,49,33,23,35,26,20,90,78,49,30.52,30.24,1,0,4,0.01
2013-11-28,42,35,27,33,30,24,90,82,67,30.35,30.24,7,1,11,0.01
2013-11-29,39,36,34,32,30,29,85,78,69,30.47,30.32,0,0,1,0.00
2013-11-30,41,38,36,30,29,28,78,71,63,30.46,30.34,2,0,3,0.00
2013-12-1,39,37,35,31,30,28,81,74,67,30.47,30.32,3,0,4,0.00
2013-12-2,37,35,34,32,30,29,86,81,75,30.34,29.85,2,0,5,0.00
2013-12-3,42,35,30,34,30,26,89,80,67,29.85,29.45,12,1,14,0.13
2013-12-4,30,18,-5,27,14,-10,90,86,79,30.39,29.45,11,3,15,0.03
2013-12-5,18,0,-10,13,-5,-15,89,79,77,30.51,30.31,4,0,4,0.01
2013-12-6,19,2,-9,14,-3,-14,82,79,77,30.65,30.42,3,0,3,0.00
2013-12-7,23,17,4,20,14,0,92,84,80,30.48,29.83,4,0,8,0.00
2013-12-8,26,16,-2,20,10,-7,88,78,64,30.41,29.83,9,3,13,0.00
2013-12-9,19,4,-8,9,-2,-13,80,75,61,31.01,30.40,5,0,6,0.00
2013-12-10,18,2,-10,7,-4,-15,80,74,58,31.04,30.77,2,0,2,0.00
2013-12-11,23,8,-2,11,1,-7,81,75,58,31.05,30.73,3,0,4,0.00
2013-12-12,24,5,-5,14,-1,-10,81,76,62,31.06,30.62,3,0,4,0.01
2013-12-13,19,6,-4,11,1,-9,81,78,68,30.72,30.49,3,0,4,0.00
2013-12-14,27,10,-3,16,4,-8,82,76,61,30.94,30.69,4,0,5,0.00
2013-12-15,31,13,3,20,8,-1,83,78,62,30.93,30.69,3,0,5,0.01
2013-12-16,31,14,3,21,8,-2,92,79,64,30.91,30.69,3,0,5,0.01
2013-12-17,32,14,4,21,9,0,92,80,65,30.94,30.65,3,0,4,0.00
2013-12-18,27,18,8,21,13,4,86,82,75,30.65,30.08,4,0,5,0.00
2013-12-19,38,26,16,27,20,12,92,80,64,30.09,29.77,4,0,5,0.00
2013-12-20,37,26,17,29,22,13,87,83,69,29.94,29.82,3,0,5,0.00
2013-12-21,32,23,10,27,19,7,92,86,77,30.22,29.80,2,0,3,0.02
2013-12-22,27,17,9,24,14,5,89,86,84,30.59,30.22,3,0,4,0.01
2013-12-23,37,21,10,25,15,7,86,79,60,30.76,30.59,4,0,7,0.00
2013-12-24,37,19,10,26,14,5,86,80,62,30.73,30.48,4,0,6,0.00
2013-12-25,36,17,4,23,10,0,87,75,52,30.90,30.68,6,1,11,0.00
2013-12-26,34,15,4,20,8,-1,83,74,52,30.89,30.64,4,1,5,0.00
2013-12-27,37,17,5,22,10,1,92,76,52,30.86,30.54,4,1,6,0.00
2013-12-28,29,17,7,21,11,3,92,80,69,30.53,30.27,4,0,5,0.00
2013-12-29,40,20,8,23,13,4,85,74,45,30.58,30.33,3,0,5,0.00
2013-12-30,35,18,6,21,11,2,92,76,56,30.72,30.44,4,1,5,0.00
2013-12-31,36,25,10,24,18,6,85,77,59,30.61,30.30,3,0,5,0.00
2014-1-1,39,23,12,26,17,8,86,77,58,30.61,30.31,4,1,5,0.00
2014-1-2,39,19,7,24,12,2,92,76,51,30.74,30.47,4,0,5,0.00